Location: Krakow
(50.0830°N, 19.9170°E)
Time: 13:33:17
(UTC+01:00)

Transit 2A - Pass Details

Date: 17 December 2023
Orbit: 600 x 953 km, 66.7° (Epoch: 22 February)

Event Time Altitude Azimuth Distance (km) Brightness Sun altitude
Rises 17:40:27 0° 322° (NW) 2,890 9.3 -18.3°
Reaches altitude 10° 17:44:30 10° 359° (N) 1,956 8.0 -19.0°
Enters shadow 17:45:06 11° 7° (N) 1,903 7.9 -19.1°
